TimeHST,TemperatureF,Dew PointF,Humidity,Sea Level PressureIn,VisibilityMPH,Wind Direction,Wind SpeedMPH,Gust SpeedMPH,PrecipitationIn,Events,Conditions,WindDirDegrees,DateUTC
12:53 AM,73.0,64.0,73,30.05,10.0,ENE,18.4,-,N/A,,Scattered Clouds,70,2012-12-20 10:53:00
1:53 AM,72.0,64.9,78,30.04,10.0,ENE,15.0,24.2,0.00,,Scattered Clouds,60,2012-12-20 11:53:00
2:53 AM,71.1,64.0,78,30.02,10.0,NE,12.7,23.0,N/A,,Scattered Clouds,50,2012-12-20 12:53:00
3:53 AM,73.0,64.0,73,30.02,10.0,ENE,17.3,26.5,0.00,Rain,Light Rain,60,2012-12-20 13:53:00
4:53 AM,73.0,63.0,71,30.01,10.0,NE,9.2,20.7,0.00,,Scattered Clouds,50,2012-12-20 14:53:00
5:53 AM,72.0,64.9,78,30.03,10.0,NE,13.8,-,N/A,,Scattered Clouds,50,2012-12-20 15:53:00
6:53 AM,72.0,64.0,76,30.04,10.0,ENE,11.5,-,N/A,,Scattered Clouds,70,2012-12-20 16:53:00
7:53 AM,71.1,64.0,78,30.06,10.0,ENE,17.3,23.0,N/A,,Scattered Clouds,60,2012-12-20 17:53:00
8:53 AM,75.0,63.0,66,30.05,10.0,ENE,13.8,23.0,N/A,,Scattered Clouds,60,2012-12-20 18:53:00
9:53 AM,77.0,63.0,62,30.06,10.0,NNE,15.0,24.2,N/A,,Scattered Clouds,30,2012-12-20 19:53:00
10:53 AM,79.0,63.0,58,30.06,10.0,NE,18.4,26.5,N/A,,Scattered Clouds,50,2012-12-20 20:53:00
11:53 AM,75.9,66.0,71,30.04,9.0,ENE,23.0,29.9,0.00,Rain,Light Rain,60,2012-12-20 21:53:00
12:53 PM,77.0,64.9,66,30.01,8.0,NE,19.6,38.0,0.00,Rain,Light Rain,40,2012-12-20 22:53:00
1:53 PM,77.0,64.0,64,30.01,10.0,NE,19.6,28.8,0.00,Rain,Light Rain,50,2012-12-20 23:53:00
2:53 PM,78.1,63.0,60,29.98,10.0,NE,16.1,24.2,0.00,,Scattered Clouds,50,2012-12-21 00:53:00
3:53 PM,77.0,62.1,60,29.98,10.0,ENE,19.6,26.5,0.00,,Scattered Clouds,60,2012-12-21 01:53:00
4:53 PM,75.0,63.0,66,29.99,10.0,NE,19.6,29.9,N/A,,Mostly Cloudy,50,2012-12-21 02:53:00
5:53 PM,72.0,64.0,76,30.02,10.0,ENE,10.4,-,0.00,,Mostly Cloudy,60,2012-12-21 03:53:00
6:53 PM,71.1,64.9,81,30.03,10.0,NE,13.8,21.9,0.00,,Mostly Cloudy,40,2012-12-21 04:53:00
7:53 PM,71.1,63.0,75,30.05,10.0,NE,16.1,23.0,N/A,,Scattered Clouds,50,2012-12-21 05:53:00
8:53 PM,72.0,62.1,71,30.06,10.0,NE,17.3,25.3,N/A,,Scattered Clouds,50,2012-12-21 06:53:00
9:53 PM,72.0,62.1,71,30.08,10.0,ENE,16.1,25.3,N/A,,Partly Cloudy,60,2012-12-21 07:53:00
10:53 PM,72.0,62.1,71,30.06,10.0,NE,10.4,-,N/A,,Partly Cloudy,50,2012-12-21 08:53:00
11:53 PM,72.0,61.0,68,30.06,10.0,ENE,13.8,24.2,N/A,,Partly Cloudy,70,2012-12-21 09:53:00